Theta_e
295 297 295 297 296 297 297 296 296 297 296 297 297 298 297 297 297 297 293 295 293 293 293 294 294 293 293 293 293 293 294 295 295 295 295 295 295 295 295 295 296 296 295 294 294 294 294 295 295 294 294 293 292 291 290 290 289 289 288 287 287 287 287 287 285 284 280 280 281 281 282 282 281 282 282 282 282 283 284 282 282 282 282 282 282
296 297 295 296 296 296 296 294 296 295 295 295 295 296 296 296 295 291 293 293 292 293 293 293 292 293 293 294 292 292 293 295 294 294 294 295 295 296 295 294 295 295 294 295 294 294 294 294 295 294 293 293 292 291 290 289 288 288 287 287 287 286 286 286 285 283 281 278 279 281 280 282 280 282 281 281 281 281 281 281 282 282 281 281 281
295 295 295 294 295 294 293 294 293 292 294 295 294 294 294 292 291 292 293 292 290 292 293 292 292 292 293 292 292 292 292 292 293 293 294 294 295 294 294 294 294 295 294 294 294 293 293 293 294 295 293 291 292 291 290 289 288 288 287 286 286 286 285 286 284 282 281 279 280 279 280 280 280 280 281 282 281 281 280 281 281 282 282 281 281
292 293 293 294 293 291 293 292 291 291 292 293 293 293 293 292 291 292 292 291 291 290 291 292 292 292 292 292 292 292 292 292 292 292 294 294 294 295 295 294 294 295 295 295 294 293 293 293 293 293 291 290 290 289 288 288 287 287 287 286 286 285 285 284 284 283 280 279 279 279 280 280 279 280 281 281 280 280 280 280 281 280 280 281 280
291 292 291 293 292 291 292 290 290 291 292 292 292 292 291 291 290 291 291 291 291 290 290 290 291 291 292 292 292 292 292 293 293 291 292 293 294 294 295 294 294 294 295 295 293 294 293 293 293 293 290 289 289 287 286 286 287 286 286 285 285 285 283 283 282 281 281 280 279 277 279 278 277 279 280 279 278 278 278 278 279 279 279 279 280
290 291 291 291 293 291 291 290 291 291 292 292 292 291 290 289 290 290 290 292 291 290 291 290 291 291 292 292 293 293 293 293 292 292 292 292 293 293 294 294 294 294 294 294 294 293 293 293 293 291 289 289 288 287 286 285 285 285 285 284 284 283 282 282 282 281 282 280 279 277 278 277 277 276 278 278 278 277 276 276 276 277 277 277 278
290 290 290 290 291 292 291 291 292 291 291 291 289 289 289 289 289 290 289 290 291 291 290 290 290 291 292 292 292 293 293 292 291 291 291 292 292 292 292 292 292 292 293 293 293 292 292 292 291 290 289 289 288 286 285 285 284 284 285 284 283 282 282 281 280 280 280 279 278 278 278 278 278 277 277 278 277 278 278 277 278 278 277 277 277
289 289 289 289 290 292 292 291 290 291 290 289 289 289 289 289 289 289 288 289 290 290 290 290 290 290 291 291 292 292 292 292 292 291 291 292 291 291 291 291 291 291 291 291 291 291 291 290 290 289 288 288 288 287 285 284 284 284 284 283 282 282 281 281 281 281 280 279 279 277 277 277 277 277 277 277 277 277 277 277 278 277 277 277 276
289 289 289 289 291 293 292 291 289 289 289 289 289 289 289 289 288 288 288 289 289 290 290 289 289 289 289 290 290 290 292 292 292 291 291 291 291 291 291 291 290 290 290 290 289 289 289 289 289 288 287 287 287 287 286 286 284 283 283 282 282 282 282 281 281 281 280 280 278 278 277 277 277 277 276 277 277 278 278 277 277 277 277 276 277
288 289 289 290 291 291 290 290 290 288 288 289 289 289 288 288 288 288 288 289 289 288 288 289 289 289 289 289 289 290 291 292 290 291 292 291 290 291 291 290 290 290 290 289 288 287 287 288 287 286 286 286 286 287 287 287 286 286 283 282 282 283 282 281 281 281 280 279 279 278 277 277 277 278 278 278 279 279 277 276 276 276 275 276 276
289 288 289 290 290 289 289 290 289 289 289 288 288 288 288 288 287 288 288 288 288 288 288 288 288 289 289 289 289 289 290 290 290 292 293 293 291 290 289 289 289 289 289 289 288 287 286 286 286 286 285 285 286 286 287 287 287 286 285 285 285 284 283 282 281 281 281 281 280 279 280 279 278 278 279 279 279 279 279 277 277 276 275 274 274
289 290 289 289 289 289 289 289 289 289 288 289 288 288 287 287 287 287 288 287 288 287 287 288 288 288 289 288 289 289 289 290 292 292 292 293 292 290 290 289 288 288 288 288 288 287 286 285 285 285 285 285 285 285 286 286 286 286 286 286 286 286 287 284 282 281 281 280 279 280 280 280 279 279 279 279 279 279 279 278 277 276 275 274 275
289 289 289 288 289 288 288 288 288 288 288 288 288 287 287 287 287 287 287 288 285 286 287 287 287 287 288 288 288 288 288 290 291 292 292 292 293 291 289 288 288 287 288 287 287 286 285 284 283 282 283 284 284 284 284 284 285 285 285 286 286 287 287 288 287 284 283 282 281 279 280 281 280 280 280 280 281 279 278 277 277 277 277 276 276
287 288 288 288 288 287 287 287 288 288 288 288 287 287 286 287 288 287 287 286 286 286 286 286 287 287 287 287 288 288 287 289 291 291 291 291 292 292 288 287 287 287 287 287 286 286 285 283 282 281 282 282 283 283 283 283 283 283 283 284 284 285 286 287 286 285 285 284 282 281 281 282 282 281 281 282 280 279 277 277 277 277 277 277 279
288 288 288 288 287 287 287 287 287 288 287 287 287 287 287 287 287 287 286 287 286 286 286 286 286 286 286 286 287 287 287 289 290 291 291 291 292 292 288 287 287 286 286 286 286 285 284 283 282 281 281 282 282 283 283 283 282 283 283 283 283 284 283 283 283 283 283 283 284 283 282 282 282 282 281 282 281 280 280 278 279 279 279 277 274
288 288 288 288 288 287 287 287 287 287 287 286 286 287 287 287 287 286 285 286 285 285 285 285 286 286 286 285 285 285 286 289 289 290 290 291 291 289 288 286 286 286 285 285 285 284 284 283 282 281 281 281 283 285 284 283 282 282 282 282 282 283 283 284 285 284 283 283 282 282 282 282 284 282 281 281 280 280 280 280 279 276 275 274 273
287 287 287 288 288 288 287 287 287 287 287 287 287 287 287 286 286 284 284 285 285 284 285 285 285 285 284 284 284 285 285 287 289 289 290 291 290 288 287 286 285 285 285 284 283 282 282 282 282 281 281 281 284 286 286 284 282 282 281 281 281 281 281 284 286 286 286 286 286 286 286 286 286 286 286 285 283 281 279 278 277 275 274 273 275
287 287 287 288 287 287 287 287 287 287 287 287 287 287 287 286 286 284 285 285 284 285 284 284 283 283 284 284 284 284 284 285 288 289 289 290 289 287 286 285 285 284 283 282 282 281 281 282 282 282 281 282 285 286 286 284 282 282 281 280 280 280 280 281 283 284 286 286 286 286 286 286 286 286 286 286 286 284 279 277 276 275 275 276 273
287 287 287 287 287 287 286 286 286 286 286 287 287 287 287 286 286 282 283 284 284 283 282 282 282 282 282 283 283 284 283 284 287 288 289 289 289 287 286 285 284 283 282 281 281 281 281 282 282 282 282 283 286 287 287 284 283 283 282 281 280 280 280 280 280 281 282 282 283 283 283 285 284 282 283 285 284 282 281 280 278 277 275 273 271
287 286 286 286 286 286 286 285 285 285 286 286 286 286 286 284 283 282 282 282 282 282 281 281 281 282 281 281 282 282 282 281 284 287 288 289 289 287 285 284 282 282 281 280 279 279 280 281 282 284 284 285 287 287 287 286 284 284 283 282 281 281 280 280 280 281 281 281 281 281 280 280 280 280 279 279 279 280 280 279 278 275 274 273 274
285 285 285 285 285 285 285 285 285 285 285 285 286 285 283 283 282 280 281 280 280 280 280 280 280 280 280 280 280 280 281 281 283 286 288 288 289 288 284 284 283 282 280 280 279 278 279 280 281 284 285 286 287 287 287 287 286 284 284 284 284 283 281 279 280 281 279 279 279 279 278 278 278 279 279 277 277 277 277 278 276 276 275 274 273
285 284 284 284 284 284 284 284 283 283 283 282 283 283 281 280 280 280 279 279 279 279 279 279 279 279 278 278 279 279 280 283 283 285 287 288 289 289 285 284 283 282 280 279 279 279 279 280 280 283 285 286 287 287 287 287 287 285 285 287 286 285 281 280 280 279 278 278 277 277 277 277 277 277 276 276 275 275 274 273 274 274 275 275 273
284 283 283 282 282 282 282 282 282 282 281 281 280 281 280 277 277 277 278 278 278 278 278 278 278 278 277 277 278 279 280 282 284 284 286 288 289 289 287 284 285 282 280 278 278 279 279 280 281 284 285 286 287 287 288 288 286 285 287 287 286 285 282 280 279 278 278 278 277 277 277 277 276 275 275 274 274 273 273 272 273 274 274 273 272
283 282 282 282 282 281 281 280 279 279 279 279 278 279 279 277 276 277 277 278 278 278 278 277 277 277 277 277 277 277 279 281 283 284 285 287 289 288 287 285 285 281 281 279 280 279 279 280 281 284 285 286 287 288 288 287 285 287 287 287 285 283 280 279 279 278 278 277 277 276 276 275 275 274 273 273 272 272 272 271 269 269 270 269 269
281 281 281 281 281 280 279 278 278 277 277 276 278 279 277 274 276 276 276 277 277 278 278 277 277 277 277 277 277 277 278 280 282 283 284 285 288 288 287 286 285 284 281 280 280 280 281 282 283 284 285 286 287 288 287 287 287 287 286 285 283 280 279 279 278 278 277 276 276 276 274 273 274 272 273 272 271 271 269 267 266 265 264 265 264
279 280 281 281 281 279 277 278 276 276 276 275 277 278 278 277 277 277 276 277 277 277 277 277 277 277 277 277 277 278 279 280 281 282 284 285 286 287 286 285 284 283 282 281 281 282 282 283 283 285 285 286 286 285 285 285 285 285 285 284 280 279 279 278 277 277 276 275 274 273 272 270 268 269 270 270 270 268 268 266 266 266 266 265 264
278 279 280 281 280 279 277 278 278 276 274 274 275 276 276 276 276 277 277 277 277 277 277 277 277 277 277 277 278 278 278 279 280 282 283 284 285 285 284 284 283 283 281 281 282 282 282 282 283 284 285 286 285 285 285 285 284 284 282 280 279 278 278 277 277 276 275 273 272 271 269 269 269 270 269 269 267 267 268 268 268 266 263 259 261
279 279 280 280 279 278 277 277 277 277 276 275 276 275 275 276 276 277 277 277 277 277 277 277 277 278 278 278 278 278 278 278 279 281 283 283 284 284 283 283 282 281 280 280 281 281 281 282 283 284 284 285 284 283 282 281 279 278 277 277 276 275 276 277 276 274 273 272 270 268 266 266 268 268 268 268 268 267 268 268 267 264 262 260 259
279 279 279 279 279 278 277 277 277 277 276 274 275 276 277 277 277 277 278 278 279 279 279 279 279 279 279 279 279 278 278 278 279 283 283 285 283 283 282 282 281 281 281 282 281 281 281 281 282 282 282 280 279 278 278 277 276 276 275 274 273 274 274 273 273 271 269 269 269 269 268 268 268 267 267 266 267 267 268 267 265 265 259 259 260
278 279 280 279 279 278 277 277 276 276 276 275 275 275 277 279 279 277 277 279 281 282 283 281 281 281 280 280 281 279 279 279 282 283 285 285 285 284 284 283 283 281 282 283 281 280 280 280 280 280 279 278 278 277 276 276 275 274 274 275 273 273 273 272 271 269 269 270 270 270 269 269 268 267 267 267 265 266 266 269 261 261 261 257 256
278 279 279 279 280 279 278 278 277 276 275 275 275 275 275 277 282 282 281 280 281 282 283 283 283 283 281 279 280 282 281 282 282 283 285 285 285 284 284 284 284 284 284 282 280 279 279 279 279 279 278 278 277 276 276 275 274 274 273 273 272 273 272 271 269 269 269 269 268 268 268 269 268 267 268 267 266 262 261 260 260 259 260 257 255
277 278 279 279 280 279 278 278 277 276 276 275 275 275 275 276 276 281 283 282 282 283 283 283 283 283 283 282 279 279 281 282 283 284 285 285 285 284 284 284 284 284 285 283 279 278 279 278 278 278 277 277 276 275 275 275 274 274 273 272 271 272 271 269 268 268 267 267 266 265 266 267 268 266 267 266 264 261 260 258 257 256 253 253 255
277 277 278 279 279 279 279 278 278 277 276 276 275 275 276 276 276 276 279 283 283 283 283 283 284 283 283 283 282 281 281 282 283 284 285 285 285 284 284 285 284 285 285 280 278 277 278 278 277 277 276 276 275 274 274 274 274 273 273 272 271 269 268 268 268 266 266 266 266 265 265 265 265 264 263 263 262 259 256 258 254 255 254 254 255
277 277 278 278 279 279 279 279 278 278 278 277 277 277 277 278 277 277 276 275 278 281 283 284 283 283 283 283 282 282 282 282 283 284 285 285 285 285 284 283 285 285 283 278 277 276 276 276 276 275 275 275 274 273 273 273 272 272 271 270 268 266 265 265 266 265 265 267 266 264 264 264 263 262 260 258 257 256 255 255 253 254 251 253 253
277 277 277 277 278 279 279 279 279 279 279 278 278 278 278 278 278 278 277 277 277 277 278 281 283 283 282 282 283 282 282 282 283 284 285 285 285 285 285 282 281 281 280 277 277 276 275 275 275 274 274 273 273 272 272 271 271 270 269 267 265 265 264 265 265 264 264 263 263 262 261 261 260 260 259 256 254 254 254 254 252 254 253 250 251
277 278 278 278 278 279 280 280 281 280 280 280 279 279 279 278 278 278 278 278 278 278 277 279 280 282 283 282 282 282 282 282 283 284 285 285 285 285 281 280 280 279 277 276 276 276 276 275 275 274 274 273 272 271 271 270 270 269 267 265 264 264 264 264 263 262 262 262 261 261 259 257 257 256 253 254 255 256 254 255 254 252 252 251 251
277 277 278 278 279 280 280 281 281 281 281 280 280 279 279 278 278 279 278 278 278 278 278 278 279 280 281 280 282 282 282 282 283 284 285 285 285 283 281 280 279 279 276 275 275 274 274 273 273 273 272 271 271 270 269 269 267 266 267 266 265 265 265 264 263 261 260 258 258 259 258 255 253 254 256 255 253 252 252 252 252 253 253 253 255
276 276 277 277 278 279 280 281 281 281 280 280 279 279 279 279 278 278 278 278 278 277 275 277 279 278 278 278 282 281 281 282 283 283 284 284 283 281 280 279 278 277 276 275 274 273 272 271 272 272 271 271 270 269 268 267 266 266 265 264 265 265 265 264 263 261 259 258 255 254 254 252 252 252 254 254 254 253 252 252 252 252 253 255 254
276 277 277 278 279 279 280 280 281 281 280 280 279 278 278 278 278 277 277 277 277 277 276 277 277 277 278 279 280 281 281 279 280 280 280 281 282 280 279 278 277 276 275 274 272 272 271 270 269 270 270 270 268 268 267 266 265 265 264 263 263 264 264 261 260 258 258 256 254 252 252 252 250 251 253 253 252 252 252 253 252 252 252 251 251
275 275 277 278 278 279 280 280 281 280 280 279 279 278 278 277 277 277 277 277 276 276 277 276 276 277 278 279 279 280 279 278 278 279 279 279 277 277 277 276 275 274 273 272 272 271 270 268 268 268 267 267 267 266 265 265 265 263 263 264 263 262 262 260 259 257 257 253 252 251 252 251 250 249 250 252 252 250 251 251 251 251 251 250 250
273 274 275 277 278 279 279 280 280 280 280 279 279 278 278 277 277 277 276 276 276 275 276 276 276 276 276 277 281 280 278 278 278 277 277 275 274 275 275 274 273 272 271 271 270 269 267 266 265 266 266 265 265 264 263 263 261 262 263 261 261 260 257 255 255 254 253 253 252 251 251 251 250 251 252 251 254 252 250 250 250 250 251 251 251
272 273 274 276 277 278 278 279 280 279 279 279 278 278 277 277 277 276 275 275 275 275 275 274 273 272 275 279 280 280 275 272 272 271 270 270 271 269 270 271 271 270 270 269 268 267 265 264 264 264 263 261 261 261 261 261 261 261 260 259 258 256 255 253 252 252 252 253 252 253 251 251 251 251 253 255 251 251 249 250 250 250 249 250 250
271 272 273 274 275 276 277 278 279 279 279 279 278 275 276 277 276 275 275 274 274 274 273 271 271 272 274 276 274 273 269 269 266 267 266 265 265 265 265 264 264 265 264 264 264 266 265 264 263 263 262 262 262 261 261 260 259 258 257 257 256 256 255 252 251 251 250 252 252 252 251 251 253 251 250 251 249 248 249 249 250 249 249 249 249
270 271 272 273 274 275 276 277 278 278 279 277 276 276 276 275 275 274 274 273 273 272 271 270 270 271 269 269 269 267 267 266 265 264 263 262 262 260 259 258 257 258 258 259 259 261 263 262 259 257 256 257 257 256 257 257 258 258 257 256 255 254 254 253 253 252 252 253 252 252 251 250 252 251 251 251 248 248 248 247 249 249 248 247 247
268 268 269 270 272 273 275 276 277 277 277 276 276 276 274 275 274 273 273 272 270 270 270 270 270 268 266 265 266 265 265 264 262 262 262 262 260 258 258 258 258 257 256 255 257 258 259 258 257 256 254 253 253 254 254 254 254 256 257 257 256 255 255 254 254 253 253 253 253 252 251 251 251 251 251 250 250 249 249 249 249 251 249 248 247
266 267 268 269 270 272 273 274 275 276 276 276 275 275 273 273 273 272 271 271 270 269 269 269 268 267 266 265 264 263 263 263 262 262 260 260 259 258 258 258 258 257 256 255 256 257 258 258 258 257 255 253 253 252 252 251 252 253 254 254 256 256 255 253 252 252 252 253 253 252 252 251 250 251 252 250 250 249 249 248 247 249 249 249 249
265 266 267 268 269 270 272 273 274 275 275 275 274 273 273 272 272 270 269 269 269 268 268 268 267 266 265 264 263 263 262 262 261 260 259 258 257 256 256 257 256 256 255 255 256 256 256 257 257 257 255 254 254 253 252 252 252 252 252 253 253 252 251 251 252 252 252 252 252 251 252 252 251 250 251 251 249 249 249 250 249 248 248 248 248
264 265 266 267 269 270 271 272 273 270 273 273 273 272 271 271 270 269 269 268 268 268 268 267 266 265 263 263 262 261 261 261 259 258 258 257 256 256 256 256 256 256 255 255 255 255 255 255 255 255 255 254 254 254 253 252 252 252 251 251 251 251 251 251 250 249 249 250 250 250 251 251 249 249 249 250 249 249 248 249 248 248 247 247 247
264 264 265 267 268 270 271 271 271 272 272 272 271 270 269 269 268 268 267 267 267 267 267 266 265 263 262 261 260 259 258 258 257 257 256 256 256 256 256 256 255 255 255 254 254 254 254 254 254 254 254 254 254 254 253 252 252 251 251 249 253 256 254 253 251 249 250 250 248 249 247 249 249 249 249 248 249 248 249 246 246 247 247 247 247
264 265 266 267 268 269 270 270 271 271 270 270 270 268 267 266 266 265 265 265 265 265 265 264 263 262 261 259 258 258 258 257 257 257 256 256 256 256 255 255 255 255 255 254 254 253 253 253 253 253 253 253 253 253 252 252 251 252 250 251 256 257 255 254 253 252 251 248 249 248 249 249 247 247 247 248 247 247 246 247 246 247 246 245 245
265 265 266 266 267 268 268 268 269 267 267 267 267 266 265 265 264 264 264 264 264 264 263 263 262 261 260 260 259 258 258 258 258 257 257 256 256 256 255 255 255 255 255 254 253 253 253 253 253 253 252 252 252 252 251 252 250 250 252 255 256 257 256 255 253 253 252 250 246 248 248 248 247 247 246 245 244 244 247 247 246 245 245 245 246
Wind_Speed
5 7 5 7 6 8 7 6 8 7 7 7 8 9 8 8 8 7 5 8 6 8 8 8 8 8 8 9 9 8 8 8 7 6 7 8 7 7 6 7 9 9 8 9 8 9 10 11 11 11 9 9 9 8 9 10 9 9 9 9 9 8 9 10 10 7 1 2 1 3 2 5 5 6 7 6 6 5 4 4 4 4 4 4 4
6 7 5 6 7 8 7 6 7 6 8 7 9 9 8 8 7 5 8 8 7 9 9 8 8 8 9 9 9 8 8 8 7 7 8 9 9 7 7 8 9 9 8 10 9 9 9 11 11 10 9 11 9 9 9 10 10 9 9 10 10 9 8 9 8 6 4 1 1 1 3 3 4 4 8 8 6 4 5 4 3 3 4 3 3
4 5 5 6 8 7 6 7 6 7 8 9 10 10 9 7 6 8 9 7 6 8 8 8 8 8 9 9 9 9 8 8 7 8 9 9 9 8 8 9 10 11 11 11 11 9 10 11 12 11 8 10 10 10 9 10 9 10 10 8 8 8 7 6 4 5 6 5 3 3 4 3 3 5 6 4 5 5 5 4 4 3 2 2 3
5 5 6 8 7 6 8 7 6 8 9 9 10 10 8 8 7 8 9 6 8 7 7 8 8 8 9 9 9 9 8 8 8 8 10 9 9 10 9 10 10 11 11 11 10 10 12 11 12 11 9 11 11 9 8 8 8 9 8 7 7 7 8 6 4 5 4 6 3 5 4 5 1 4 5 4 5 4 4 3 3 2 2 2 3
4 6 5 8 7 7 9 7 7 9 10 9 11 9 7 7 6 9 7 8 8 6 7 6 8 9 10 10 10 9 9 8 9 9 9 8 9 10 10 10 11 11 11 11 11 11 12 13 12 11 10 11 9 9 8 11 9 9 9 8 8 8 8 8 6 5 6 8 5 2 3 2 2 4 5 6 4 4 3 2 2 3 2 3 2
5 6 6 7 8 8 9 7 9 11 10 10 10 7 6 6 7 6 7 9 7 8 9 8 9 10 9 9 9 10 9 9 9 10 9 9 9 10 10 10 10 10 10 10 10 10 11 12 11 10 11 12 12 11 10 11 9 9 9 8 9 8 7 6 8 8 9 8 8 5 2 4 3 3 2 4 6 4 3 2 1 2 3 2 3
5 6 5 6 8 9 9 9 9 9 9 8 6 6 7 7 7 9 6 7 8 9 8 9 9 9 9 9 10 9 9 9 9 9 9 9 9 9 9 9 9 9 9 9 9 9 10 10 10 10 11 12 11 11 11 9 9 10 11 11 9 9 8 7 6 7 7 7 3 3 5 3 4 4 2 3 4 3 5 3 2 1 2 2 3
5 5 5 6 8 10 9 7 7 8 6 6 7 7 6 7 8 7 6 9 10 10 9 10 9 8 10 9 9 8 8 9 10 9 9 9 9 9 9 9 9 9 8 8 8 9 9 9 9 10 11 11 11 10 10 10 8 9 9 8 9 11 9 8 8 6 6 5 4 5 2 4 4 4 3 4 4 1 2 4 5 3 3 2 3
6 5 5 7 10 9 8 6 5 5 6 7 7 8 8 7 7 7 7 9 8 9 8 8 8 9 9 9 9 8 9 10 9 9 9 9 9 9 9 9 9 9 9 8 8 8 8 8 8 9 10 12 14 12 12 12 11 10 9 10 11 10 8 8 7 6 5 6 4 4 5 5 5 6 5 5 6 6 4 5 3 3 2 1 3
6 7 7 8 8 7 7 6 6 5 6 8 8 7 7 6 6 7 9 9 8 8 8 7 9 10 9 9 8 8 9 8 10 14 12 9 9 9 8 9 9 9 9 9 8 7 8 8 8 11 12 13 13 14 15 16 15 12 13 12 11 10 10 9 9 9 9 9 8 8 6 6 7 7 7 4 4 5 5 4 4 2 1 3 3
7 6 9 8 7 7 7 7 6 7 7 7 7 6 7 6 7 8 9 9 9 8 7 8 10 9 10 10 10 10 9 9 13 15 16 16 10 9 9 9 8 9 8 9 9 9 7 6 6 8 10 10 11 14 14 15 13 9 11 13 12 14 13 12 10 9 10 9 7 7 8 7 6 5 5 5 5 6 5 5 5 4 4 2 4
8 9 8 8 8 8 8 7 7 8 6 8 7 7 6 6 8 8 8 8 8 6 8 10 10 9 8 9 10 10 10 10 14 16 17 18 15 11 9 8 8 9 9 9 8 8 8 7 7 6 7 8 7 8 9 11 10 8 11 11 11 9 10 14 12 9 9 9 8 8 7 6 6 6 5 6 6 5 5 5 5 5 5 3 3
8 8 8 7 8 7 7 8 8 8 8 8 7 6 6 7 8 8 10 8 5 8 10 9 10 9 9 10 11 10 10 12 15 17 16 17 18 14 8 8 8 9 9 9 9 9 8 7 6 5 5 9 7 7 8 8 10 14 14 12 11 14 10 12 13 14 10 10 10 7 7 6 6 6 7 7 6 7 5 5 5 4 4 4 4
6 8 7 7 7 6 6 7 8 8 8 7 6 7 7 10 9 7 7 6 8 9 8 10 10 10 11 11 11 10 10 11 16 16 16 17 17 15 8 8 8 8 9 9 9 9 8 8 7 7 6 7 6 9 9 9 9 10 9 8 6 8 9 11 8 7 8 9 9 9 6 5 7 5 6 7 8 7 7 6 5 4 4 4 2
9 8 8 7 6 6 7 7 8 8 7 7 7 8 8 8 8 7 7 9 9 10 10 10 11 10 10 10 10 10 10 12 15 16 17 17 16 15 9 8 8 8 7 8 8 8 8 8 9 8 8 8 7 9 10 10 11 11 11 10 8 7 6 7 7 7 5 5 6 5 7 5 4 6 6 5 6 5 6 5 5 4 2 2 2
10 10 12 11 9 7 7 9 8 8 7 7 7 8 8 8 9 7 7 8 7 7 8 8 10 10 10 9 10 11 9 13 15 16 17 15 15 10 8 8 8 7 7 7 7 7 7 8 8 8 9 10 11 17 14 10 10 11 10 9 7 6 4 4 7 7 6 6 5 6 6 6 6 6 6 6 5 4 4 4 4 3 3 2 3
10 10 10 10 10 9 8 9 11 9 8 8 9 9 8 9 8 4 7 8 8 9 10 9 9 9 9 10 11 11 9 12 15 16 15 14 11 7 7 7 7 8 8 6 7 7 7 8 7 8 9 9 13 18 17 16 10 11 11 10 8 7 7 6 9 10 10 10 11 11 10 10 9 10 10 11 8 6 5 5 4 4 4 3 3
10 10 11 11 11 10 10 9 11 11 9 10 10 9 8 7 7 5 8 9 9 10 8 8 8 8 10 11 11 11 10 10 14 15 15 16 13 9 8 8 8 8 6 6 6 7 8 12 10 9 8 8 15 19 20 15 13 14 14 13 11 9 7 5 5 6 10 10 10 9 9 9 10 10 11 11 13 10 6 6 4 5 4 3 3
11 11 13 12 11 11 10 10 9 10 11 11 9 10 9 8 7 4 7 7 9 6 6 8 8 7 8 9 11 12 9 8 12 12 15 15 13 8 7 7 8 7 6 6 5 5 4 8 12 10 9 11 20 21 22 18 13 13 12 12 11 10 8 8 8 8 6 6 5 5 5 7 6 4 3 7 9 8 4 5 5 5 5 3 3
11 10 11 11 10 11 10 10 11 9 11 11 9 9 7 6 6 6 7 6 8 7 6 7 9 9 7 8 8 9 8 7 7 12 14 15 16 9 7 8 8 8 7 7 6 5 5 5 8 13 15 17 19 21 21 20 11 10 10 11 11 10 8 8 7 7 7 6 6 5 5 4 5 5 4 5 5 5 5 4 4 5 5 4 3
9 10 10 11 11 11 10 9 12 12 8 10 10 9 6 7 7 6 7 6 6 7 7 7 8 9 7 7 7 7 7 7 7 12 14 16 17 14 8 9 8 8 8 7 6 7 6 6 6 11 16 19 20 21 16 19 14 11 10 10 10 10 12 8 9 9 7 6 6 6 5 4 4 4 5 5 5 4 5 5 5 4 5 4 3
9 9 11 11 11 12 12 11 9 10 10 8 9 10 6 5 7 6 6 6 7 9 7 7 7 8 6 6 6 7 6 9 7 10 14 16 18 17 10 9 9 8 7 6 6 6 7 7 7 12 19 19 21 22 21 17 15 10 11 12 14 18 11 8 8 7 7 6 6 6 5 5 5 5 5 5 5 5 5 4 4 4 3 3 4
9 10 10 11 11 11 11 11 11 9 9 8 8 11 8 5 6 5 6 6 8 8 8 7 7 8 7 6 6 6 6 6 10 9 12 16 15 14 14 8 11 8 8 8 8 7 6 7 8 16 20 20 19 20 19 18 15 10 16 16 17 17 12 8 8 7 7 7 7 7 6 6 6 5 5 5 5 5 5 5 5 5 5 4 3
9 11 11 11 11 11 10 10 9 8 9 9 8 9 9 6 5 6 5 7 7 8 7 6 7 7 8 7 6 6 5 5 8 11 10 15 14 16 15 14 14 9 7 7 7 7 7 7 8 16 18 18 19 19 18 16 10 15 17 18 18 14 8 9 8 8 8 7 7 6 6 6 6 5 5 6 6 5 5 4 5 4 5 5 5
11 12 12 12 11 10 9 9 9 8 8 7 8 9 8 5 7 6 5 7 7 8 8 6 8 8 7 8 7 6 5 5 5 8 12 13 15 17 16 16 16 14 8 6 8 7 9 14 17 18 19 18 18 19 16 18 19 18 18 19 15 8 9 8 9 8 8 8 7 6 6 6 5 5 5 5 5 5 5 4 4 4 4 5 4
12 13 13 12 12 9 10 11 8 8 8 6 8 8 8 7 7 7 6 7 7 8 8 7 7 7 8 7 7 6 6 5 6 6 8 9 11 15 16 16 15 13 9 7 10 13 15 17 20 20 19 16 14 12 10 11 16 16 17 16 9 8 8 8 8 9 8 7 7 7 6 4 3 4 5 6 7 6 6 6 5 4 4 5 3
12 12 12 11 11 9 9 10 9 7 5 6 7 7 7 7 7 8 7 7 8 8 8 7 8 7 8 7 6 6 6 6 6 6 6 7 6 8 10 10 13 12 8 8 10 10 13 13 11 14 11 15 12 10 10 13 12 10 9 8 8 8 8 8 9 8 7 7 6 5 4 5 5 6 6 6 6 4 4 5 5 4 4 3 4
11 13 14 11 10 9 9 11 11 9 8 6 7 8 7 7 8 10 9 9 9 9 8 9 9 9 9 8 7 6 7 7 7 7 7 7 7 8 8 8 9 8 8 8 9 9 10 11 14 12 12 11 9 8 7 7 7 8 7 7 7 6 6 6 6 5 6 5 5 5 5 5 6 6 5 5 5 5 3 5 5 4 4 5 2
12 13 13 10 11 9 8 9 9 9 9 7 8 8 9 8 10 10 9 7 9 10 9 10 9 8 8 8 8 8 7 8 10 10 10 11 11 10 10 10 9 9 10 12 9 8 8 10 10 11 11 9 9 9 8 8 7 7 8 7 6 6 6 6 7 6 6 7 7 7 7 6 6 4 6 5 4 5 4 4 2 5 2 2 6
12 13 12 10 10 9 8 8 8 8 8 9 8 9 9 12 11 9 9 9 12 11 8 8 7 6 7 7 6 9 8 6 3 11 10 10 12 12 9 9 9 9 13 19 12 9 9 9 9 9 10 10 10 9 9 9 8 7 6 6 7 6 6 6 6 7 7 7 7 7 6 6 6 5 5 6 3 3 2 4 3 3 5 4 4
11 12 11 10 11 10 10 10 9 7 8 9 8 9 9 7 14 18 15 10 11 14 16 14 10 9 8 7 5 6 2 4 11 14 13 13 13 13 13 14 15 16 19 14 11 10 10 10 10 10 9 9 9 9 9 9 9 8 7 6 6 7 6 6 6 7 7 7 7 6 6 6 6 5 5 5 5 3 3 3 5 4 5 5 3
11 12 12 11 11 10 9 10 9 9 9 8 8 8 8 10 8 11 17 16 14 15 15 14 12 11 12 10 7 4 6 9 13 15 15 16 16 16 17 17 18 19 20 15 9 9 9 9 10 10 9 9 8 8 8 8 8 8 8 8 7 6 7 7 6 7 7 6 6 6 6 5 5 5 5 5 5 5 5 4 4 5 2 2 3
12 12 12 12 11 11 10 9 9 9 9 9 8 8 9 9 10 9 6 13 16 14 14 14 13 12 12 12 13 10 8 10 14 16 16 17 18 18 18 19 19 20 20 11 8 8 8 8 9 8 9 9 8 8 8 8 9 8 8 9 8 7 6 6 6 7 7 7 6 6 5 5 5 5 5 5 6 5 4 5 2 2 4 3 1
13 12 12 13 12 12 11 10 10 10 9 8 9 9 9 9 9 8 7 4 6 9 13 14 13 13 13 13 12 12 12 13 15 17 18 18 19 19 18 14 19 22 15 8 8 7 7 8 7 8 8 7 8 8 8 7 7 7 7 6 6 6 6 6 7 6 6 6 6 6 5 5 5 6 4 4 2 3 5 5 4 4 3 5 6
13 14 19 15 11 12 12 10 10 10 9 9 9 9 10 9 8 9 8 8 8 8 7 7 11 13 10 10 13 14 14 14 16 16 17 17 18 18 17 11 12 12 10 7 8 8 8 8 8 8 8 8 8 8 8 7 7 7 8 8 7 7 6 6 6 6 6 6 6 6 5 6 5 5 6 6 4 4 5 4 4 5 5 3 3
13 12 12 13 11 11 11 11 10 10 10 10 9 9 9 8 9 9 8 8 8 7 6 6 5 9 14 11 13 14 14 14 15 16 16 18 19 19 11 9 8 8 7 6 7 8 8 8 8 8 7 6 7 6 6 7 7 7 7 8 8 8 7 7 6 6 5 6 6 6 5 4 5 5 3 4 6 6 5 5 4 3 4 4 5
13 13 13 12 11 11 11 11 11 11 10 10 9 9 8 9 8 8 7 8 8 6 6 3 4 5 7 6 10 14 16 16 16 16 16 18 20 12 5 5 5 5 6 6 5 6 7 6 6 7 7 7 7 7 7 7 7 7 7 7 8 8 7 7 6 6 6 5 5 5 5 6 5 5 7 6 3 3 4 3 4 5 6 6 5
15 14 14 13 12 13 13 12 12 13 11 10 9 9 9 9 9 9 8 8 8 6 5 5 6 7 8 7 8 6 10 14 15 13 13 15 12 8 7 5 5 5 6 5 5 5 5 5 5 6 6 7 7 7 7 7 7 8 8 7 7 7 8 7 6 6 6 6 6 5 5 5 5 5 5 6 6 5 5 6 5 5 3 6 5
12 19 26 26 19 15 13 13 12 10 10 10 10 9 10 9 9 8 9 7 7 7 5 6 6 6 6 6 8 8 10 10 11 11 11 10 8 7 7 7 6 6 6 6 5 5 5 6 5 5 6 6 7 7 7 7 7 7 7 7 6 6 7 6 6 5 6 5 5 5 6 6 5 5 5 6 5 5 5 5 5 6 6 5 6
15 15 16 22 16 15 13 12 12 11 10 10 10 9 9 9 10 9 9 8 8 8 7 7 7 7 7 8 8 10 11 11 11 9 9 9 8 8 8 8 7 7 8 7 6 6 6 5 5 6 6 6 6 6 6 6 6 7 6 7 7 7 6 6 7 6 6 6 6 6 6 6 5 5 4 5 5 5 6 6 5 6 6 5 4
15 16 17 17 17 15 14 13 12 12 10 10 9 9 10 10 9 8 8 9 8 8 8 7 6 4 4 7 12 11 8 9 9 8 7 7 6 7 7 7 8 8 7 7 6 6 6 6 5 6 5 5 5 6 6 6 6 7 6 6 6 6 6 5 6 6 7 6 6 6 6 6 6 6 6 5 4 4 4 4 4 4 5 4 4
14 14 14 13 14 13 13 13 11 12 11 10 10 10 9 9 8 8 8 9 7 7 7 6 5 3 4 11 13 13 7 6 6 5 6 6 6 5 5 6 5 6 7 7 7 7 6 6 5 5 6 7 7 6 6 7 7 7 6 6 7 7 7 6 6 6 7 7 6 6 6 6 6 5 4 5 5 5 5 4 5 5 4 4 4
15 14 14 13 13 13 13 13 11 10 10 10 10 9 9 9 9 8 8 8 8 7 7 7 6 5 5 7 9 10 7 6 5 7 6 6 5 5 6 6 5 5 5 5 5 6 6 6 6 5 6 7 7 7 8 7 7 7 6 7 7 7 7 6 6 6 6 6 6 5 6 6 6 5 5 5 5 6 6 5 4 4 5 4 4
14 14 13 13 13 13 13 13 12 11 10 11 10 8 8 8 8 8 8 8 7 7 7 7 7 6 5 5 6 6 7 6 6 7 9 8 8 9 7 6 7 8 6 6 5 5 6 7 7 5 4 4 4 3 5 6 7 8 8 7 7 7 7 7 7 7 7 6 6 6 6 5 6 6 5 6 5 5 5 4 5 5 4 4 3
13 13 13 13 12 12 12 11 11 11 10 8 9 8 7 8 8 8 8 8 6 7 8 8 7 7 5 5 5 7 7 7 6 6 7 7 8 6 5 5 5 6 7 7 5 6 6 7 7 8 7 4 4 5 5 5 4 6 7 8 8 7 7 7 7 6 7 7 7 6 6 6 6 6 6 5 5 5 5 5 6 5 4 4 4
13 13 13 13 13 12 12 12 9 10 10 9 9 8 8 8 8 9 8 8 8 9 9 9 8 8 6 6 6 5 7 7 7 7 6 7 7 7 6 5 6 5 4 6 5 5 6 7 7 7 7 6 5 5 5 4 5 5 5 5 6 6 5 5 6 7 7 6 7 6 6 6 5 6 6 6 6 6 6 4 4 5 5 4 5
13 13 14 13 12 12 11 10 10 10 9 9 8 8 8 8 7 7 6 8 9 7 9 9 9 9 8 8 8 7 7 8 9 10 8 6 5 5 6 6 6 6 6 5 5 6 6 6 6 7 7 6 6 6 5 4 4 5 4 5 6 6 6 6 6 6 6 6 6 6 6 6 6 5 6 5 4 6 4 6 5 5 4 4 4
12 13 12 12 12 12 12 10 11 10 9 8 8 7 6 6 7 7 7 7 8 7 8 7 7 8 7 7 6 7 8 8 9 9 8 5 6 5 7 8 7 6 6 6 6 5 5 6 6 6 7 7 6 6 5 4 4 5 4 5 5 6 6 6 5 5 5 5 6 6 6 6 6 5 5 6 5 5 5 6 4 4 5 4 4
12 12 12 11 11 11 10 10 8 8 8 7 6 6 4 6 6 6 6 7 7 7 7 7 6 6 5 6 5 7 9 9 9 5 5 5 6 5 6 8 7 8 7 7 6 6 5 5 5 5 6 5 5 6 5 5 5 4 4 4 5 8 8 7 6 5 5 6 5 5 4 5 5 5 5 5 6 6 6 4 4 4 2 2 3
10 11 10 10 10 10 8 7 7 6 5 4 4 4 5 5 5 5 6 6 6 6 5 6 7 7 7 7 7 8 7 7 6 6 6 5 5 5 5 6 8 8 8 8 6 6 6 5 5 5 5 5 5 4 4 5 4 4 4 4 7 9 9 8 8 8 7 5 6 5 6 5 5 5 6 6 5 5 5 5 4 5 3 3 4
10 9 9 9 9 8 7 6 6 3 3 4 4 6 6 6 5 6 6 7 7 6 6 6 7 6 6 7 6 7 6 6 5 6 6 5 5 6 5 6 9 8 7 7 7 6 6 6 6 6 6 5 4 4 4 4 4 4 5 7 8 8 9 9 6 8 8 6 4 6 6 6 6 6 5 6 6 5 7 5 4 4 4 4 4
Wind_Direction
241 249 232 236 235 235 231 221 222 215 223 222 230 234 232 226 226 224 213 225 206 216 217 216 213 214 216 218 218 220 216 220 219 220 225 232 229 224 223 218 223 225 218 218 213 212 215 220 220 218 206 207 209 204 203 203 199 204 200 196 200 193 181 189 207 221 336 71 26 205 150 145 170 182 176 177 181 183 162 171 165 183 198 221 233
247 256 244 243 237 238 234 231 231 222 221 221 229 235 231 227 224 218 225 226 203 218 219 215 213 212 217 219 218 221 220 218 215 214 224 229 233 222 221 215 222 228 217 222 214 213 213 219 223 219 208 212 208 207 203 200 197 200 198 198 204 199 197 181 206 181 197 53 124 30 140 167 146 170 182 174 174 157 173 167 164 179 202 211 231
272 256 252 249 248 244 240 236 226 228 230 231 227 227 228 229 213 221 229 226 216 219 217 213 212 213 218 221 217 218 216 215 212 213 223 225 227 228 223 219 221 222 220 221 215 208 213 217 223 217 204 209 212 212 201 202 195 199 203 199 201 194 185 187 153 184 180 199 143 166 175 163 154 176 172 153 149 158 158 164 175 181 198 209 231
270 263 256 254 253 249 243 240 229 231 234 237 240 236 222 219 209 221 227 219 223 223 217 216 213 215 220 222 219 219 216 212 214 217 223 223 226 229 225 223 223 223 223 222 217 209 213 216 222 213 199 207 211 207 197 193 192 200 198 193 191 184 188 189 203 147 172 161 195 177 175 157 143 127 129 114 125 129 140 121 124 165 182 196 218
265 260 252 259 257 249 250 239 235 237 238 239 241 242 237 234 215 222 223 225 224 217 223 215 218 218 222 222 222 222 219 211 215 221 222 222 226 229 228 227 226 226 225 223 219 214 215 217 219 209 198 207 207 203 193 195 193 186 191 184 179 176 175 185 188 154 156 181 153 145 132 116 107 104 132 130 106 88 81 113 143 171 206 218 212
260 263 260 258 263 255 253 246 238 239 240 243 243 244 240 232 232 233 221 231 228 222 217 213 214 222 224 228 225 227 219 216 217 219 218 218 223 227 230 230 230 229 228 227 224 219 219 220 218 204 200 203 205 199 191 196 185 187 186 181 180 172 173 181 174 178 177 179 159 131 151 157 110 95 115 114 122 118 110 118 141 185 194 240 213
268 264 266 257 266 261 256 248 245 246 245 248 250 242 235 231 227 231 220 226 227 227 224 220 216 216 225 224 227 225 221 218 221 221 218 216 218 223 229 231 232 232 231 231 228 225 223 222 216 202 202 205 201 193 189 186 182 189 185 182 175 165 169 161 157 164 160 142 112 134 132 79 112 118 92 97 92 133 159 149 248 198 190 204 269
283 278 273 270 262 266 262 263 259 255 258 253 246 241 236 230 227 228 213 221 225 227 224 221 222 213 222 222 225 221 221 224 224 220 216 213 212 221 223 228 233 235 235 233 228 226 223 220 213 204 203 202 198 194 180 183 180 182 185 166 165 167 164 153 151 150 138 137 149 154 165 130 97 78 106 110 104 99 160 161 203 215 216 178 213
303 294 287 272 269 269 275 273 268 265 258 254 249 243 237 233 230 225 222 230 228 228 226 219 220 224 225 221 223 217 220 225 223 216 214 214 212 216 219 224 226 233 236 234 229 225 223 218 212 206 204 202 200 191 189 182 173 180 180 169 169 167 153 147 144 135 140 154 133 123 140 136 150 146 150 168 186 182 162 153 202 224 208 276 267
303 298 284 275 278 282 281 283 280 271 262 255 252 248 242 235 230 230 230 229 230 225 227 220 221 224 223 224 221 219 224 225 222 220 215 211 207 213 216 222 224 228 229 231 231 224 223 216 216 208 203 202 199 196 192 189 190 182 170 170 169 165 157 147 155 161 162 169 168 156 156 176 177 181 177 170 128 111 119 148 183 211 77 282 285
310 295 288 289 294 296 295 288 284 274 263 264 260 253 245 236 232 232 233 229 228 226 220 223 226 226 224 222 222 224 227 226 222 220 219 214 210 212 214 219 217 223 223 223 226 222 222 217 215 207 204 203 202 197 190 189 188 180 177 179 174 163 157 162 164 162 169 170 165 161 172 178 186 168 170 146 154 167 167 169 169 155 182 209 266
318 308 297 302 302 299 296 295 291 283 278 267 261 253 246 238 237 235 237 234 231 220 222 225 229 227 229 230 229 228 231 227 225 224 220 217 213 213 212 213 211 213 215 217 220 216 214 210 210 202 201 200 186 182 181 180 177 149 149 164 162 170 160 159 161 172 172 154 164 176 159 178 166 168 168 153 164 161 165 163 171 174 192 199 213
313 306 305 304 298 299 299 298 291 286 277 270 265 256 243 244 241 239 237 233 225 221 228 226 231 226 226 230 233 230 233 223 225 224 222 222 221 217 222 217 211 212 209 210 210 209 207 204 197 188 192 182 171 166 161 164 163 155 153 150 154 162 172 180 181 174 167 154 155 161 179 157 157 185 174 163 151 159 159 174 185 179 188 199 216
312 305 305 302 298 300 298 295 290 283 282 277 268 258 247 245 243 239 243 232 225 231 228 228 229 225 223 226 232 231 230 222 222 222 221 221 221 216 221 213 218 216 214 208 206 203 198 193 184 184 176 171 169 167 164 160 153 145 143 140 144 150 161 158 130 121 132 142 147 168 185 161 175 156 161 150 152 167 163 180 169 180 191 215 216
327 324 320 315 311 309 306 296 290 289 282 275 267 258 252 257 251 240 231 231 226 228 227 228 229 227 227 226 232 233 230 219 221 221 221 220 218 217 217 214 215 217 216 212 204 198 192 190 185 178 170 173 173 164 161 161 156 152 149 153 147 138 135 144 147 138 125 121 141 143 154 160 126 131 144 149 147 150 157 165 179 179 167 57 23
329 331 328 327 325 319 313 305 297 290 285 276 267 263 258 250 252 242 237 243 239 240 243 231 234 229 226 224 229 237 230 217 220 221 220 216 210 213 213 210 214 215 214 207 202 196 190 185 183 178 173 174 174 168 165 155 151 146 140 134 129 128 127 100 111 115 121 124 125 130 136 144 135 124 138 140 138 132 132 118 93 94 122 215 233
326 322 317 318 320 320 318 310 305 302 295 289 279 270 266 262 255 235 244 241 238 235 236 231 231 230 227 221 225 235 232 218 218 219 215 207 203 208 204 208 213 215 213 201 198 191 188 186 177 176 181 180 176 170 159 153 147 146 143 145 150 144 124 115 119 125 126 124 124 124 130 143 150 155 161 166 162 157 140 137 178 148 160 199 230
321 318 313 316 315 315 311 306 301 300 297 288 283 279 268 262 258 222 233 244 242 240 236 243 238 230 228 227 222 230 233 216 216 217 213 208 201 204 202 206 213 213 208 191 187 187 187 178 180 174 173 171 175 169 159 155 157 162 161 156 152 139 133 127 129 139 142 135 133 139 151 164 172 176 176 179 187 170 152 175 186 146 181 206 224
319 317 312 311 309 307 306 301 293 291 290 285 280 278 272 263 259 228 238 243 250 248 237 241 245 236 234 234 228 229 235 223 217 210 211 209 206 204 200 202 208 204 185 187 184 179 171 179 175 165 167 170 176 171 167 168 170 167 157 150 153 158 162 155 150 142 143 132 135 143 163 174 172 134 119 133 97 112 143 156 160 154 179 200 217
305 303 302 303 303 303 301 299 292 287 285 285 281 270 273 274 257 239 244 234 250 244 236 239 242 242 230 233 233 228 229 228 218 213 208 209 206 198 196 195 203 193 185 180 173 175 170 169 170 171 174 173 176 172 173 178 167 160 159 162 160 170 156 159 161 147 141 140 141 147 147 122 119 115 112 97 89 99 110 117 133 141 153 187 193
301 299 300 300 301 299 298 291 291 290 278 280 284 281 269 263 263 244 247 242 241 248 237 238 240 246 233 231 230 230 221 222 222 214 211 208 208 198 199 202 197 184 187 183 178 168 164 165 164 174 175 177 178 177 171 175 172 165 167 167 175 153 145 145 156 144 135 139 145 149 137 122 119 128 116 102 102 100 94 96 98 115 133 145 147
301 302 301 300 299 299 297 295 286 283 289 286 286 280 271 253 256 252 250 243 240 243 239 234 239 244 240 232 227 229 222 219 216 218 216 212 211 200 200 204 190 179 177 179 170 170 166 164 164 176 177 176 178 177 173 171 164 161 171 162 136 138 147 142 137 135 137 145 149 150 148 143 139 135 127 119 119 114 109 102 103 102 107 134 150
306 302 299 297 294 292 291 289 288 288 283 279 273 276 281 268 260 247 247 247 245 247 240 233 235 242 241 237 230 226 219 220 215 215 218 215 205 192 193 183 177 169 175 177 177 171 160 163 167 176 179 178 179 174 172 169 168 165 157 145 143 140 134 136 136 141 150 154 152 158 161 157 152 150 137 126 125 120 119 118 120 114 99 95 87
308 303 297 293 292 289 286 284 281 278 276 277 270 269 273 260 256 242 237 238 245 247 245 229 231 236 233 237 234 226 224 217 219 216 215 217 204 194 184 175 172 176 175 174 162 161 161 163 168 175 177 178 179 174 170 169 167 157 148 146 138 136 133 137 149 154 155 155 160 162 166 164 148 153 157 149 148 137 125 116 96 98 119 109 99
307 299 294 290 286 284 283 278 276 276 272 264 268 265 264 248 251 244 221 237 235 241 243 222 227 230 231 231 227 224 219 221 218 216 212 212 207 192 182 174 175 164 163 162 159 164 167 166 173 177 179 177 173 171 166 175 170 153 148 141 136 139 145 152 155 153 158 168 168 162 161 172 162 166 157 135 124 113 102 77 79 87 97 100 104
298 292 292 291 287 285 285 282 268 261 267 256 252 257 254 245 238 239 221 229 229 233 238 226 232 229 234 231 225 221 213 214 217 211 210 205 200 188 178 171 169 164 145 152 160 167 172 174 175 175 174 174 173 169 168 167 159 151 148 143 141 147 152 152 155 159 167 162 163 166 167 152 155 144 134 128 131 145 136 134 124 89 90 107 103
288 287 285 288 291 290 285 285 288 275 255 256 251 254 250 247 241 239 226 223 227 230 230 226 229 231 234 233 228 220 215 214 213 209 201 196 189 178 169 169 162 159 156 165 169 174 173 171 174 175 172 174 170 155 151 148 146 149 136 138 146 151 158 163 165 161 154 153 153 157 150 147 123 118 129 138 141 153 147 138 127 141 119 91 131
289 291 291 291 287 286 284 279 278 278 267 242 249 254 244 235 238 234 222 215 216 226 221 222 223 221 230 228 224 220 221 216 209 202 200 188 183 177 177 170 172 169 164 165 164 164 162 168 173 173 171 169 155 145 139 129 129 128 135 142 146 142 133 113 105 122 133 139 132 122 119 132 140 143 139 145 158 155 142 129 140 130 133 126 98
294 290 289 291 287 285 276 273 272 271 272 260 239 232 234 232 236 247 240 218 216 220 218 228 224 221 225 224 217 226 224 219 213 201 200 192 184 178 177 179 174 172 165 154 146 156 162 170 174 172 171 157 144 140 135 131 131 136 138 141 137 140 142 152 155 153 147 139 146 150 148 145 144 144 143 146 146 132 123 113 92 129 85 108 191
297 294 294 293 289 290 285 277 269 266 264 266 268 264 236 232 237 239 252 231 229 236 231 233 225 214 228 230 215 222 230 249 241 213 207 187 182 179 178 163 157 151 158 158 157 159 169 172 173 168 162 158 154 149 147 142 139 138 142 139 140 144 149 149 145 146 148 147 147 143 149 145 143 148 151 147 110 97 137 149 121 131 148 163 186
290 288 292 290 289 290 288 286 277 263 259 261 259 266 280 256 239 239 242 239 233 231 233 237 225 209 204 224 219 212 220 204 194 198 192 184 175 163 158 159 161 163 164 155 161 169 171 172 171 167 167 162 155 153 148 149 150 147 150 149 148 148 146 145 148 140 140 139 140 142 144 148 151 152 152 153 150 135 72 44 102 118 161 168 187
288 288 289 288 289 284 277 274 277 271 266 254 251 259 263 272 271 242 239 237 235 234 232 230 220 215 209 200 188 199 192 193 191 190 188 180 173 164 164 166 168 170 172 161 161 169 172 171 169 168 163 164 160 152 154 152 155 155 151 152 161 158 152 152 152 137 137 134 137 141 146 149 152 163 167 161 154 148 141 128 136 142 106 124 192
287 286 284 285 283 281 277 273 269 264 264 261 255 244 248 252 261 270 245 233 232 234 231 228 217 213 210 203 197 201 201 195 197 194 187 182 173 167 167 172 174 176 171 166 174 167 168 171 168 164 164 164 159 159 160 159 159 162 163 162 158 157 141 137 133 131 139 147 141 144 144 141 143 141 144 143 147 164 163 169 139 144 151 159 198
289 287 288 288 290 286 280 272 267 264 255 249 247 245 243 242 247 251 256 255 250 241 235 225 216 206 206 198 197 201 201 194 197 196 189 180 174 168 170 177 179 182 176 166 163 168 164 167 167 168 168 160 162 157 158 158 157 153 144 132 126 123 130 132 131 136 136 142 138 142 141 144 145 139 139 122 127 137 162 172 157 152 179 186 199
291 286 281 277 273 274 275 272 266 262 258 250 245 242 244 240 238 240 236 232 230 229 226 225 219 213 210 211 206 204 200 199 199 199 189 176 169 168 167 171 180 183 169 165 162 164 169 172 169 170 167 165 165 161 159 153 149 150 146 140 134 134 138 143 141 139 137 131 126 140 148 146 150 145 152 158 153 172 187 174 184 182 179 181 179
289 284 285 280 273 269 268 268 262 256 254 251 243 238 240 238 235 236 234 232 231 231 233 217 205 214 209 198 197 198 195 194 199 197 191 177 168 169 169 176 176 175 161 163 165 166 165 168 166 165 162 151 148 148 151 151 152 147 143 144 146 148 148 142 143 137 133 135 140 139 127 122 139 141 130 145 176 182 177 181 182 185 185 183 184
293 290 285 283 279 274 270 265 259 254 249 246 243 239 235 235 234 234 228 226 225 222 213 190 160 185 197 190 189 194 192 192 192 193 179 172 168 167 158 165 165 152 154 158 153 150 161 160 153 149 148 148 148 145 142 144 140 136 141 143 147 147 151 146 142 137 133 127 126 139 144 153 154 160 161 172 179 161 165 166 174 174 160 178 167
286 285 284 284 282 277 273 267 261 252 246 240 236 233 233 231 228 226 223 221 213 202 191 195 195 192 189 190 171 175 184 183 182 182 174 170 170 167 165 154 139 137 148 140 147 146 141 140 143 148 143 143 144 143 141 140 145 144 144 144 142 142 135 134 134 131 130 129 140 146 144 149 159 160 155 159 171 177 189 178 174 190 195 192 178
285 288 288 287 280 276 272 270 263 252 243 235 229 226 226 226 224 222 221 215 205 192 193 192 195 196 185 164 161 163 161 171 181 181 182 181 178 157 158 154 140 138 141 146 140 142 139 148 142 134 139 139 141 142 142 142 140 138 134 131 125 129 131 129 136 138 140 147 146 150 151 152 154 159 155 154 168 177 179 182 184 184 188 200 203
298 295 291 290 285 277 271 266 260 251 241 234 231 222 225 222 219 218 213 207 205 190 185 189 194 196 185 172 167 166 172 177 180 174 175 175 161 153 156 153 145 144 145 146 147 142 140 138 139 135 134 130 134 129 130 135 133 134 133 136 138 140 144 146 148 152 158 151 146 154 155 156 156 144 146 164 173 165 172 185 192 191 193 196 204
292 289 289 288 282 280 274 268 259 249 244 234 231 222 221 220 216 212 208 208 203 196 187 190 186 186 191 184 172 168 165 169 169 170 169 157 144 145 147 139 136 137 136 139 136 134 134 135 132 127 121 119 122 125 127 125 123 133 135 136 133 134 137 138 145 145 142 147 152 157 157 147 147 149 174 196 175 165 186 175 183 189 198 198 190
288 287 287 286 285 279 276 269 263 252 243 235 228 224 222 217 211 203 205 201 200 192 182 165 149 148 179 176 176 166 137 122 123 122 111 115 119 107 108 109 116 128 136 136 138 136 135 133 131 133 132 125 125 123 128 130 139 136 138 139 142 140 147 153 155 153 152 156 154 155 151 156 161 175 176 157 170 167 178 187 187 187 189 196 195
286 285 286 284 283 278 277 275 267 258 244 237 231 226 219 210 204 203 199 197 193 184 167 151 148 153 140 134 118 103 96 104 99 108 101 92 89 92 90 84 89 84 93 101 99 123 134 134 132 134 139 145 149 153 153 152 148 142 142 144 146 149 149 147 148 154 149 144 150 152 154 163 165 167 171 167 165 172 188 188 192 193 201 192 198
285 286 283 281 280 277 273 271 269 259 250 240 230 222 211 207 202 194 193 185 179 168 160 151 152 145 118 104 106 105 110 111 113 110 109 99 94 83 83 79 77 81 89 85 86 109 125 122 114 91 75 82 99 109 125 144 146 148 147 142 142 147 151 158 167 165 162 154 151 156 162 166 168 164 175 176 161 175 194 191 199 201 196 204 191
286 284 283 282 279 277 276 270 265 261 252 241 228 220 206 201 196 189 182 178 169 160 157 153 149 139 134 132 131 128 126 125 126 124 122 123 116 112 120 122 120 117 110 88 93 98 109 119 123 121 119 105 100 112 119 127 133 138 144 144 146 156 172 179 179 162 153 151 157 157 161 165 174 177 183 180 178 186 198 201 201 195 203 200 192
286 285 281 279 279 276 274 272 266 259 249 234 225 211 203 200 194 187 181 175 167 164 160 157 150 148 146 143 141 136 133 129 130 128 124 121 126 123 120 112 103 96 91 96 102 107 115 126 133 134 132 131 127 116 117 120 116 118 127 132 141 151 154 139 130 138 152 154 155 161 161 167 176 182 182 183 189 189 202 199 189 195 200 208 212
285 283 283 277 276 273 271 267 266 257 247 235 221 214 199 199 189 178 176 170 167 164 165 162 154 155 154 154 155 151 145 138 139 135 128 116 112 113 113 112 108 109 108 103 106 115 118 119 122 129 131 134 130 126 126 120 115 113 112 111 117 118 126 139 144 146 152 157 150 147 160 167 178 186 186 181 187 194 193 199 195 201 207 206 209
281 282 279 277 275 273 272 269 261 253 242 232 218 209 199 188 179 175 167 165 163 165 164 159 156 148 147 149 147 149 146 134 128 115 101 112 111 110 110 112 120 120 114 109 94 106 113 116 119 123 128 131 132 129 130 127 122 118 116 114 115 120 122 123 128 128 137 141 152 157 160 167 180 181 185 184 191 183 187 210 202 203 200 206 209
279 277 277 275 274 272 271 269 260 252 241 233 213 203 182 174 172 164 162 161 163 160 162 155 137 125 118 119 127 127 115 112 99 101 99 104 108 105 104 108 108 106 110 102 113 109 116 116 120 121 128 130 133 135 138 138 139 133 130 124 136 140 138 132 133 149 139 138 147 147 154 164 175 183 180 181 187 186 195 198 191 202 203 196 192
269 271 272 276 275 276 273 270 265 253 249 226 200 173 150 147 148 147 145 139 132 131 127 127 129 132 131 139 145 138 117 110 114 116 113 113 110 114 106 108 108 103 102 109 118 105 108 118 121 121 124 128 131 129 135 139 144 148 143 156 171 167 165 160 148 143 146 159 158 165 164 168 170 176 184 182 179 178 187 201 198 197 194 197 204
290 286 282 281 280 278 277 266 259 257 202 177 153 134 154 154 150 147 142 145 141 136 133 130 125 126 142 153 144 126 102 105 102 107 111 113 120 120 122 117 120 115 116 111 110 108 115 102 103 102 102 121 128 134 136 144 144 156 167 175 179 179 176 171 163 166 156 146 151 147 160 168 179 185 187 179 171 178 196 193 193 191 197 196 195